CAPE
0 0 0 0 0 0 0 0 0 0 0 0 0 0 0 0 13 41 118 78 908 972 1056 826 592 403 245 60 0 0 0 0 0 56 43 21 2 1 0 0 0 0 0 0 0 0 0 0 0
0 0 0 0 0 0 0 0 0 0 0 0 0 0 0 0 48 24 229 128 894 1173 952 854 621 418 181 50 18 0 0 0 7 6 0 0 0 0 0 0 0 0 0 0 0 0 0 0 0
0 0 0 0 0 0 0 0 0 0 0 0 0 0 0 25 22 129 235 193 1052 1242 888 927 649 421 229 66 32 0 0 7 25 1 0 0 0 0 0 0 0 0 0 0 0 0 0 0 0
0 0 0 0 0 0 0 0 0 0 0 0 0 0 0 0 22 304 174 274 766 890 1101 722 695 418 270 66 14 0 0 28 6 0 0 0 0 0 0 0 0 0 0 0 0 0 0 0 0
0 0 0 0 0 0 0 0 0 0 0 0 0 0 7 3 149 256 191 325 697 1057 954 754 604 479 320 99 41 0 0 109 0 0 0 0 0 0 0 0 0 0 0 0 1 0 0 0 0
0 0 0 0 0 0 0 0 0 0 0 0 0 0 48 26 248 305 243 381 747 1318 1037 777 671 603 441 201 72 5 0 56 3 0 0 3 0 0 9 0 0 0 0 0 0 0 0 0 12
0 0 0 0 0 0 0 0 0 0 0 0 0 0 31 122 388 455 314 309 627 1248 1265 914 799 727 575 286 96 27 4 7 11 0 18 0 0 7 22 0 0 0 0 0 0 0 6 5 0
0 0 0 0 0 0 0 0 0 0 0 0 0 0 35 302 482 541 445 426 517 791 1126 932 938 801 641 423 180 47 12 15 12 8 16 0 30 55 24 0 0 0 0 0 0 0 0 0 0
0 0 0 0 0 0 0 0 0 0 0 0 0 0 0 305 530 524 521 528 445 720 775 1150 1129 1013 789 519 284 113 50 0 10 11 0 0 0 25 5 13 0 0 0 0 0 0 0 0 0
0 0 0 0 0 0 0 0 0 0 0 0 0 0 0 0 429 554 574 629 561 710 670 1036 1274 1158 941 640 287 160 72 7 0 0 0 0 0 9 0 0 0 0 0 0 0 0 0 0 0
0 0 0 0 0 0 0 0 0 0 0 0 0 0 0 0 15 428 524 590 665 659 676 655 1161 1119 808 593 329 253 119 14 0 0 0 0 0 0 0 0 0 0 0 0 0 0 0 0 0
0 0 0 0 0 0 0 0 0 0 0 0 0 0 0 0 0 2 163 416 579 741 745 876 824 969 938 712 530 370 274 99 0 0 0 0 0 0 0 0 0 0 0 0 0 0 0 0 0
0 0 0 0 0 0 0 0 0 0 0 0 0 0 0 0 0 0 0 8 111 585 742 948 1038 1032 1015 852 679 517 407 196 137 15 0 0 0 0 0 1 0 0 0 0 0 0 0 0 0
0 0 0 0 0 0 0 0 0 0 0 0 0 0 0 0 0 0 0 0 0 65 635 904 1041 1280 1237 1004 787 754 511 318 309 163 17 0 0 0 0 0 0 0 0 0 0 0 0 0 0
4 0 0 0 0 0 0 0 0 0 0 0 0 0 0 0 0 0 0 0 0 0 180 692 952 1332 1323 1405 1140 940 698 443 445 341 97 8 5 0 0 0 0 0 0 0 0 0 0 0 0
0 0 0 0 0 0 0 0 0 0 0 0 0 0 0 0 0 0 0 0 0 0 0 196 871 1123 1359 1359 1319 1137 928 602 509 454 145 27 47 0 0 0 0 0 0 0 0 0 0 0 0
3 0 0 0 0 0 0 0 0 0 0 0 0 0 0 0 0 0 0 0 0 0 0 0 379 994 1174 1336 1332 1249 1086 767 634 515 174 120 15 0 0 0 0 0 0 0 0 0 0 0 0
0 1 0 0 0 0 0 0 0 0 0 0 0 0 0 0 0 0 0 0 0 0 0 0 0 533 1074 1286 1320 1270 1144 824 661 516 300 138 2 0 0 0 0 0 0 0 0 0 0 0 0
1 0 0 0 0 0 0 0 0 0 0 0 0 0 0 0 0 0 0 0 0 0 0 0 0 0 8 344 1064 1173 1046 826 748 580 290 40 0 0 0 0 0 0 0 0 0 0 0 0 0
0 0 0 0 0 0 0 0 0 0 0 0 0 0 0 0 0 0 0 0 0 0 0 0 0 0 0 0 428 940 951 842 675 427 32 0 0 0 0 0 0 0 0 0 0 0 0 0 0
0 0 0 0 0 0 0 0 0 0 0 0 0 0 0 0 0 0 0 0 0 0 0 0 0 0 0 0 102 454 422 77 73 0 0 0 0 0 0 0 0 0 0 0 0 0 0 0 0
0 0 0 0 0 0 0 0 0 0 0 0 0 0 0 0 0 0 0 0 0 0 0 0 0 0 0 0 243 529 652 380 2 0 0 0 0 0 0 0 0 0 0 0 0 0 0 0 0
0 0 0 0 0 0 0 0 0 0 0 0 0 0 0 0 0 0 0 0 0 0 0 0 0 0 0 1 392 525 117 0 0 0 0 0 0 0 0 0 0 0 0 0 0 0 0 0 0
0 0 0 0 0 0 0 0 0 0 0 0 0 0 0 0 0 0 0 0 0 0 0 0 0 0 0 172 601 198 18 0 0 0 0 0 0 0 0 0 0 0 0 0 0 0 0 0 0
0 0 0 0 0 0 0 0 0 0 0 0 0 0 0 0 0 0 0 0 0 0 0 0 0 0 4 375 547 1 0 0 0 0 0 0 0 0 0 0 0 0 0 0 0 0 0 0 0
3 0 0 0 0 0 0 0 0 0 0 0 0 0 0 0 0 0 0 0 0 0 0 0 0 0 75 388 231 0 0 0 0 0 0 0 0 0 0 0 0 0 0 0 0 0 0 0 0
1 0 0 0 0 0 0 0 0 0 0 0 0 0 0 0 0 0 0 0 0 0 0 0 0 0 132 243 3 0 0 0 0 0 0 0 0 0 0 0 0 0 0 0 0 0 0 0 0
0 0 0 1 0 0 0 0 0 0 0 0 0 0 0 0 0 0 0 0 0 0 0 0 0 0 73 60 0 0 0 0 0 0 0 0 0 0 0 0 0 0 0 0 0 0 0 0 0
0 0 0 0 0 0 0 0 0 0 0 0 0 0 0 0 9 5 0 0 1 1 0 0 0 21 61 8 0 0 0 0 0 0 0 0 0 0 0 0 0 0 0 0 0 0 0 0 0
0 0 0 0 0 0 0 0 0 0 0 0 0 0 0 4 11 2 1 6 12 108 32 4 4 41 18 0 0 0 0 0 0 0 0 0 0 0 0 0 0 0 0 0 0 0 0 0 0
CIN
-0 -0 -0 -0 -0 -0 -0 -0 -0 -0 -0 -0 -0 -0 -0 -0 -34 -52 -194 -211 -177 -227 -184 -181 -203 -214 -214 -291 -0 -0 -0 -0 -0 -147 -0 -0 -0 -0 -0 -0 -0 -0 -0 -0 -0 -0 -0 -0 -45
-0 -0 -0 -0 -0 -0 -0 -0 -0 -0 -0 -0 -0 -0 -0 -0 -75 -170 -187 -211 -141 -177 -193 -174 -190 -205 -225 -298 -312 -0 -0 -0 -0 -0 -0 -0 -0 -0 -0 -0 -0 -0 -0 -0 -0 -0 -0 -0 -0
-0 -0 -0 -0 -0 -0 -0 -0 -0 -0 -0 -0 -0 -0 -0 -21 -64 -149 -193 -201 -104 -145 -186 -164 -176 -193 -223 -280 -296 -0 -0 -0 -46 -0 -0 -0 -0 -0 -0 -0 -0 -0 -0 -0 -0 -0 -0 -0 -0
-0 -0 -0 -0 -0 -0 -0 -0 -0 -0 -0 -0 -0 -0 -0 -0 -57 -149 -213 -186 -119 -149 -142 -193 -173 -191 -207 -273 -309 -0 -0 -192 -0 -0 -0 -0 -0 -0 -0 -0 -0 -0 -0 -0 -0 -0 -0 -0 -0
-0 -0 -0 -0 -0 -0 -0 -0 -0 -0 -0 -0 -0 -0 -18 -26 -124 -162 -183 -160 -94 -148 -173 -189 -189 -195 -211 -262 -307 -0 -0 -146 -0 -0 -0 -0 -0 -0 -0 -0 -0 -0 -0 -0 -0 -0 -0 -0 -0
-0 -0 -0 -0 -0 -0 -0 -0 -0 -0 -0 -0 -0 -0 -40 -110 -108 -163 -176 -125 -71 -118 -170 -187 -185 -188 -198 -241 -297 -276 -0 -220 -89 -0 -0 -125 -0 -0 -1 -0 -0 -0 -0 -0 -0 -0 -0 -0 -2
-0 -0 -0 -0 -0 -0 -0 -0 -0 -0 -0 -0 -0 -0 -39 -58 -119 -138 -146 -123 -92 -85 -145 -153 -159 -175 -186 -250 -313 -372 -308 -365 -303 -0 -232 -0 -0 -153 -147 -0 -0 -0 -0 -0 -0 -0 -3 -6 -0
-0 -0 -0 -0 -0 -0 -0 -0 -0 -0 -0 -0 -0 -0 -14 -56 -101 -111 -113 -131 -111 -86 -123 -150 -142 -164 -173 -215 -279 -357 -395 -348 -331 -307 -264 -0 -203 -135 -162 -0 -0 -0 -0 -0 -0 -0 -0 -0 -0
-0 -0 -0 -0 -0 -0 -0 -0 -0 -0 -0 -0 -0 -0 -0 -51 -77 -89 -89 -113 -115 -99 -80 -123 -109 -111 -131 -176 -247 -313 -346 -0 -284 -323 -0 -0 -0 -177 -238 -188 -0 -0 -0 -0 -0 -0 -0 -0 -0
-0 -0 -0 -0 -0 -0 -0 -0 -0 -0 -0 -0 -0 -0 -0 -0 -63 -82 -94 -105 -114 -109 -99 -49 -80 -64 -91 -148 -220 -262 -325 -366 -0 -0 -0 -0 -0 -152 -0 -0 -0 -0 -0 -0 -0 -0 -0 -0 -0
-0 -0 -0 -0 -0 -0 -0 -0 -0 -0 -0 -0 -0 -0 -0 -0 -21 -64 -73 -82 -82 -108 -95 -93 -25 -76 -114 -138 -192 -215 -263 -355 -0 -0 -0 -0 -0 -0 -0 -0 -0 -0 -0 -0 -0 -0 -0 -0 -0
-0 -0 -0 -0 -0 -0 -0 -0 -0 -0 -0 -0 -0 -0 -0 -0 -0 -36 -62 -47 -53 -63 -78 -79 -54 -23 -119 -125 -137 -170 -214 -242 -24 -0 -0 -0 -0 -0 -0 -0 -0 -0 -0 -0 -0 -0 -0 -0 -0
-0 -0 -0 -0 -0 -0 -0 -0 -0 -0 -0 -0 -0 -0 -0 -0 -0 -0 -0 -49 -56 -19 -49 -65 -24 -16 -67 -94 -113 -107 -132 -189 -199 -162 -8 -0 -0 -0 -0 -11 -0 -0 -0 -0 -0 -0 -0 -0 -0
-0 -0 -0 -0 -0 -0 -0 -0 -0 -0 -0 -0 -0 -0 -0 -0 -0 -0 -0 -0 -0 -58 -14 -47 -38 -12 -16 -60 -71 -52 -69 -121 -109 -178 -150 -0 -0 -0 -0 -0 -0 -0 -0 -0 -0 -0 -0 -0 -0
-14 -0 -0 -0 -0 -0 -0 -0 -0 -0 -0 -0 -0 -0 -0 -0 -0 -0 -0 -0 -0 -0 -26 -17 -40 -13 -9 -8 -35 -35 -30 -66 -74 -90 -195 -273 -197 -18 -0 -0 -0 -0 -0 -0 -0 -0 -0 -0 -0
-0 -0 -0 -0 -0 -0 -0 -0 -0 -0 -0 -0 -0 -0 -0 -0 -0 -0 -0 -0 -0 -0 -0 -26 -15 -29 -32 -22 -19 -20 -26 -47 -96 -43 -153 -201 -191 -0 -0 -0 -0 -0 -0 -0 -0 -0 -0 -0 -0
-3 -0 -0 -0 -0 -0 -0 -0 -0 -0 -0 -0 -0 -0 -0 -0 -0 -0 -0 -0 -0 -0 -0 -0 -20 -27 -45 -25 -24 -14 -7 -24 -78 -49 -106 -135 -251 -0 -0 -0 -0 -0 -0 -0 -0 -0 -0 -0 -0
-0 -2 -0 -0 -0 -0 -0 -0 -0 -0 -0 -0 -0 -0 -0 -0 -0 -0 -0 -0 -0 -0 -0 -0 -0 -20 -37 -42 -18 -18 -6 -27 -44 -54 -71 -178 -198 -0 -0 -0 -0 -0 -0 -0 -0 -0 -0 -0 -0
-15 -0 -0 -0 -0 -0 -0 -0 -0 -0 -0 -0 -0 -0 -0 -0 -0 -0 -0 -0 -0 -0 -0 -0 -0 -0 -155 -63 -18 -12 -21 -35 -38 -50 -101 -350 -0 -0 -0 -0 -0 -0 -0 -0 -0 -0 -0 -0 -0
-0 -0 -0 -0 -0 -0 -0 -0 -0 -0 -0 -0 -0 -0 -0 -0 -0 -0 -0 -0 -0 -0 -0 -0 -0 -0 -0 -0 -69 -34 -45 -82 -82 -100 -335 -0 -0 -0 -0 -0 -0 -0 -0 -0 -0 -0 -0 -0 -0
-0 -0 -0 -0 -0 -0 -0 -0 -0 -0 -0 -0 -0 -0 -0 -0 -0 -0 -0 -0 -0 -0 -0 -0 -0 -0 -0 -0 -104 -90 -121 -273 -242 -0 -0 -0 -0 -0 -0 -0 -0 -0 -0 -0 -0 -0 -0 -0 -0
-0 -0 -0 -0 -0 -0 -0 -0 -0 -0 -0 -0 -0 -0 -0 -0 -0 -0 -0 -0 -0 -0 -0 -0 -0 -0 -0 -0 -73 -77 -105 -188 -42 -0 -0 -0 -0 -0 -0 -0 -0 -0 -0 -0 -0 -0 -0 -0 -0
-0 -0 -0 -0 -0 -0 -0 -0 -0 -0 -0 -0 -0 -0 -0 -0 -0 -0 -0 -0 -0 -0 -0 -0 -0 -0 -0 -20 -73 -76 -216 -0 -0 -0 -0 -0 -0 -0 -0 -0 -0 -0 -0 -0 -0 -0 -0 -0 -0
-0 -0 -0 -0 -0 -0 -0 -0 -0 -0 -0 -0 -0 -0 -0 -0 -0 -0 -0 -0 -0 -0 -0 -0 -0 -0 -0 -72 -54 -150 -351 -0 -0 -0 -0 -0 -0 -0 -0 -0 -0 -0 -0 -0 -0 -0 -0 -0 -0
-4 -0 -0 -0 -0 -0 -0 -0 -0 -0 -0 -0 -0 -0 -0 -0 -0 -0 -0 -0 -0 -0 -0 -0 -0 -0 -13 -29 -36 -111 -0 -0 -0 -0 -0 -0 -0 -0 -0 -0 -0 -0 -0 -0 -0 -0 -0 -0 -0
-3 -3 -0 -0 -0 -0 -0 -0 -0 -0 -0 -0 -0 -0 -0 -0 -0 -0 -0 -0 -0 -0 -0 -0 -0 -0 -86 -30 -62 -0 -0 -0 -0 -0 -0 -0 -0 -0 -0 -0 -0 -0 -0 -0 -0 -0 -0 -0 -0
-0 -1 -0 -0 -0 -0 -0 -0 -0 -0 -0 -0 -0 -0 -0 -0 -0 -0 -0 -0 -0 -0 -0 -0 -0 -0 -36 -29 -83 -0 -0 -0 -0 -0 -0 -0 -0 -0 -0 -0 -0 -0 -0 -0 -0 -0 -0 -0 -0
-0 -0 -0 -2 -0 -0 -0 -0 -0 -0 -0 -0 -0 -0 -0 -0 -0 -0 -0 -0 -0 -0 -0 -0 -0 -0 -19 -55 -0 -0 -0 -0 -0 -0 -0 -0 -0 -0 -0 -0 -0 -0 -0 -0 -0 -0 -0 -0 -0
-0 -0 -2 -1 -0 -0 -0 -0 -0 -0 -0 -0 -0 -0 -0 -0 -73 -151 -0 -0 -12 -26 -0 -0 -0 -9 -56 -22 -0 -0 -0 -0 -0 -0 -0 -0 -0 -0 -0 -0 -0 -0 -0 -0 -0 -0 -0 -0 -0
-0 -0 -0 -0 -0 -0 -0 -0 -0 -0 -0 -0 -0 -0 -0 -21 -45 -52 -51 -92 -90 -78 -20 -16 -56 -6 -36 -0 -0 -0 -0 -0 -0 -0 -0 -0 -0 -0 -0 -0 -0 -0 -0 -0 -0 -0 -0 -0 -0
Wind_Speed
27 29 25 24 22 21 26 28 19 19 19 23 18 19 20 24 19 18 7 9 6 7 8 9 9 9 10 11 12 13 14 13 13 13 13 14 15 16 17 17 17 16 14 14 14 15 15 15 16
25 26 23 22 24 27 27 22 19 18 19 18 22 23 21 16 14 9 7 6 7 8 8 8 10 10 10 11 12 14 14 13 13 13 14 14 14 15 16 16 16 16 15 14 14 14 15 16 17
24 24 23 21 24 27 26 24 15 14 17 20 19 11 17 16 12 6 7 6 7 8 8 8 9 10 10 11 12 13 13 12 12 13 14 15 14 15 15 16 16 16 16 15 15 15 16 16 16
20 20 24 30 30 20 20 30 18 16 18 17 20 18 12 15 13 8 4 5 5 7 8 9 8 8 10 11 11 12 12 12 11 13 13 14 14 14 15 15 16 16 15 16 16 16 16 17 17
21 23 28 28 30 32 34 30 18 18 20 14 14 18 14 14 10 6 3 3 4 6 7 6 6 6 8 9 11 12 11 11 11 12 13 13 14 14 14 14 15 15 15 16 16 16 16 16 17
22 22 29 31 34 27 21 30 15 17 20 16 17 20 14 8 7 5 3 0 2 4 4 3 4 5 6 8 9 10 10 9 10 11 12 13 14 14 13 13 15 15 15 16 16 16 16 17 17
29 29 34 37 36 31 24 18 15 16 17 19 17 18 9 8 7 4 3 1 0 2 2 1 2 3 5 6 7 8 9 9 9 10 11 13 15 14 11 12 14 15 15 15 15 16 16 17 18
26 32 41 41 37 36 32 27 16 17 22 18 17 14 14 10 8 5 4 2 2 2 1 1 1 1 3 5 5 7 7 8 8 9 10 12 14 13 12 12 13 14 14 15 15 16 16 17 18
22 35 38 42 37 36 33 31 16 18 24 22 15 18 10 9 8 5 6 6 5 4 3 1 1 1 1 3 3 4 5 6 6 7 8 9 11 11 11 12 13 13 14 15 16 16 17 17 18
26 36 38 32 35 36 37 27 19 19 15 23 21 10 11 12 10 8 8 9 8 6 6 4 2 2 0 1 2 4 5 5 5 5 6 7 7 9 10 11 12 13 13 15 16 16 17 18 19
28 42 30 32 35 32 31 31 21 24 16 18 19 16 14 13 11 10 10 9 10 9 8 7 5 4 3 4 3 3 3 4 3 3 4 4 7 9 9 10 11 12 13 15 15 17 18 20 21
37 31 33 35 33 30 32 32 32 26 23 29 31 26 16 9 10 13 16 13 9 8 9 8 9 6 5 5 5 4 3 3 3 2 2 3 6 7 7 8 8 11 13 15 16 17 18 20 21
32 35 33 30 36 32 30 34 36 39 33 33 35 35 28 24 21 24 13 14 15 10 9 9 10 10 7 7 7 7 5 4 4 2 2 4 5 5 4 7 9 12 14 16 16 18 20 21 22
23 31 33 36 30 32 36 36 36 33 36 38 37 38 37 28 26 27 29 18 18 16 11 10 11 10 10 9 7 8 7 5 5 4 5 4 4 4 7 8 11 12 13 15 17 19 20 21 23
26 32 33 35 33 31 28 39 38 39 36 34 23 20 26 40 32 25 24 27 15 18 13 11 11 10 10 9 8 7 7 5 6 7 5 6 6 6 7 9 10 10 12 14 16 18 20 22 23
27 31 36 31 28 29 25 42 31 33 21 18 18 24 22 19 21 22 27 26 30 15 16 13 12 12 11 11 11 11 9 8 6 9 6 5 6 6 7 8 9 10 12 14 16 18 19 21 23
26 33 30 31 22 23 24 34 27 28 26 29 27 20 17 17 19 17 22 24 25 24 17 14 13 14 13 12 11 12 11 10 7 8 6 5 5 7 6 6 7 9 12 13 14 17 19 21 23
26 29 30 32 21 23 30 37 34 36 39 35 28 28 27 25 21 17 18 26 26 25 24 19 16 14 14 14 13 11 12 11 8 8 7 5 6 5 4 5 6 8 11 12 13 15 18 21 24
31 31 31 30 29 35 39 44 41 40 37 36 33 31 28 27 26 25 20 31 31 31 31 26 21 19 17 16 16 14 13 12 11 9 8 6 5 5 3 2 6 7 9 11 12 14 17 21 25
29 31 34 34 33 35 39 49 47 46 43 37 34 32 32 31 29 28 28 24 22 28 34 33 25 21 20 19 18 18 15 13 11 9 8 8 7 6 4 3 5 7 8 10 12 14 16 19 23
27 29 31 34 35 37 41 46 34 30 28 29 27 31 33 33 33 31 29 27 26 23 24 32 29 26 22 21 19 18 14 13 13 11 12 11 9 6 4 3 5 7 8 10 11 14 16 18 21
25 25 27 29 31 31 29 42 38 39 35 30 27 27 29 31 34 37 40 37 30 28 26 26 28 27 27 24 23 21 20 18 18 14 13 11 9 7 5 4 5 6 8 9 10 13 16 18 20
23 22 24 27 31 35 31 34 40 29 34 32 32 29 31 28 28 29 30 31 37 35 29 26 26 26 27 25 26 24 22 20 16 14 12 11 10 8 6 4 5 6 6 8 10 13 16 18 19
18 21 24 27 29 36 31 27 43 30 27 27 33 29 28 23 26 28 30 30 30 32 33 30 27 26 25 23 23 26 24 20 18 16 14 13 11 9 7 5 5 6 6 7 9 12 15 18 20
17 21 27 30 30 35 25 27 32 31 42 42 39 29 27 25 30 31 33 37 37 35 34 31 31 27 25 23 22 23 24 22 20 17 16 14 13 11 8 6 6 6 6 6 8 12 15 18 21
17 19 24 33 32 34 32 31 33 28 30 29 29 29 29 33 28 29 31 34 40 40 32 31 30 27 25 24 22 21 22 22 20 17 16 14 13 11 7 6 6 4 5 6 9 12 15 18 21
18 19 19 28 33 36 31 35 37 34 32 33 32 31 28 26 25 28 31 33 39 40 32 29 29 28 26 24 22 21 20 19 17 16 15 13 12 10 7 5 5 5 5 6 9 13 16 19 21
15 17 22 22 30 34 31 31 32 35 33 32 31 31 27 22 22 25 30 35 37 36 30 28 26 27 25 23 22 20 18 17 14 13 14 13 11 9 7 6 5 4 5 8 11 15 18 21 24
12 19 19 22 20 24 33 28 29 33 33 32 33 32 25 21 21 25 28 33 36 34 30 26 24 25 22 21 20 18 17 15 13 12 11 11 9 8 6 5 4 4 6 9 13 16 19 22 25
6 14 9 14 19 17 27 29 20 26 30 33 38 28 23 21 21 21 25 31 35 32 31 20 23 23 20 17 16 16 14 14 12 10 9 8 7 5 4 4 4 5 8 11 15 18 21 24 27
Wind_Direction
282 281 289 292 287 287 280 280 297 298 301 287 308 295 294 293 301 295 6 354 68 77 82 73 61 45 35 26 17 10 4 6 13 21 26 27 22 17 10 5 4 4 7 9 8 7 6 4 2
283 281 288 289 280 277 281 291 289 295 297 309 297 289 289 302 326 344 6 31 81 86 88 73 71 55 39 24 14 6 4 13 20 30 20 14 15 14 14 10 9 9 11 12 8 4 2 360 0
281 279 283 283 277 275 277 294 304 307 306 304 303 306 291 302 343 354 19 77 82 85 91 85 75 64 42 25 12 6 6 10 23 24 16 18 28 22 16 10 10 12 13 11 9 7 4 1 1
285 284 279 269 270 285 282 279 310 308 305 305 297 301 297 317 316 333 10 85 82 92 99 95 81 63 43 31 21 17 14 12 27 18 22 23 17 13 12 14 11 12 11 9 8 5 4 1 359
278 278 270 273 274 272 270 284 309 302 301 310 307 292 306 313 333 1 18 80 83 75 92 93 80 48 35 28 22 22 20 20 26 21 14 10 5 8 9 17 17 14 11 6 1 -0 360 359 1
269 272 269 269 269 279 286 281 297 298 296 304 305 292 315 331 331 334 334 48 74 87 84 82 76 60 44 33 23 22 23 30 33 22 11 6 356 353 4 22 16 14 8 3 0 358 358 357 352
262 263 264 264 267 276 283 291 289 297 296 296 303 301 310 323 337 336 316 280 189 74 56 73 55 65 53 41 34 28 30 31 22 22 17 9 354 1 28 21 15 10 4 2 355 349 350 355 350
267 266 259 255 265 270 273 289 288 289 288 298 305 296 305 321 319 315 306 293 270 293 84 103 92 46 26 35 44 42 34 33 33 26 23 13 14 28 35 24 14 8 1 355 354 350 351 352 356
269 261 260 255 264 269 273 281 294 290 289 290 299 284 309 331 322 320 299 292 282 281 280 162 156 153 29 10 28 38 40 33 25 21 23 20 22 26 24 16 12 6 0 354 349 348 350 353 356
262 259 260 268 270 271 270 281 291 288 287 281 289 301 304 304 300 293 283 279 272 270 268 261 204 210 250 4 6 354 356 0 8 8 19 30 38 35 21 16 8 4 2 356 350 349 347 345 347
266 258 270 269 270 281 278 278 287 286 277 283 279 284 288 287 286 283 282 275 271 269 269 268 258 232 249 297 303 320 338 343 1 46 36 44 12 15 21 12 3 360 357 352 350 348 345 341 341
262 269 269 269 272 283 276 277 276 282 282 275 277 282 298 277 285 282 281 278 261 257 259 261 265 264 256 280 280 280 290 312 318 351 62 20 352 354 360 12 13 6 357 348 346 347 345 344 342
266 266 271 275 271 279 281 274 274 271 279 276 274 272 280 281 283 282 283 278 280 264 250 250 260 259 257 274 275 273 273 279 285 310 316 342 339 357 10 10 9 352 344 341 344 343 342 340 338
277 273 272 271 278 278 275 276 274 279 275 273 273 271 271 279 277 279 277 281 280 274 260 251 252 252 259 263 263 271 273 270 286 286 303 315 326 342 343 354 347 348 344 341 342 342 340 338 339
274 276 276 272 274 275 284 273 273 277 277 277 277 267 231 269 275 271 273 277 270 273 262 250 246 243 246 250 254 262 273 266 275 295 285 300 311 327 337 339 338 344 345 342 340 341 342 340 339
276 275 272 280 273 273 272 271 282 283 282 269 261 276 274 231 231 257 268 269 270 263 262 251 237 235 236 245 255 266 266 271 264 289 279 285 307 316 323 329 332 337 338 338 337 338 341 341 339
273 272 274 277 281 279 268 277 285 286 288 285 286 278 270 240 232 253 264 258 261 268 263 247 234 223 232 243 249 260 265 267 256 267 271 268 290 306 313 325 333 335 334 336 337 338 339 340 338
273 271 276 275 280 279 276 276 281 280 280 282 286 286 286 285 281 268 254 265 262 258 263 255 255 234 236 241 243 243 256 262 262 263 263 262 279 294 308 324 335 334 331 334 337 339 342 340 337
272 278 278 279 283 283 279 277 280 281 282 280 280 281 281 281 283 282 273 270 267 264 262 266 247 240 244 250 238 240 244 256 259 264 262 256 256 273 284 320 334 336 329 331 336 340 341 339 337
274 276 276 281 285 285 283 276 278 277 278 280 279 279 280 281 279 277 276 273 260 265 265 260 259 243 241 245 249 254 254 259 261 262 273 270 265 261 261 295 327 338 335 329 333 334 338 341 341
276 277 279 281 286 287 286 280 286 290 288 286 282 280 282 280 279 277 275 271 269 259 256 263 256 255 246 244 247 256 254 260 265 264 269 267 264 251 262 295 324 330 333 328 332 334 335 337 341
278 283 285 287 289 285 303 282 283 286 288 292 292 288 285 284 281 277 275 276 273 265 263 259 263 250 253 243 246 234 239 246 259 256 268 263 252 253 260 289 315 324 328 328 333 337 336 337 337
279 290 290 290 289 291 293 288 287 296 293 296 298 292 292 289 287 284 283 279 274 274 272 257 256 257 251 242 244 239 245 256 254 257 259 254 255 248 250 276 304 318 324 329 333 333 336 338 338
293 292 294 294 293 287 292 287 290 300 304 307 310 306 290 290 293 292 291 289 283 279 271 271 258 250 251 240 240 239 241 243 247 251 251 251 244 245 254 274 295 313 320 326 332 337 337 338 338
291 294 292 291 290 291 303 291 288 301 301 300 303 305 306 297 300 297 293 287 287 279 275 270 264 250 246 241 239 240 243 243 244 244 244 238 237 242 247 262 290 301 311 322 333 335 337 337 337
288 294 296 291 295 298 303 297 303 310 308 313 312 305 301 295 300 298 301 296 290 281 272 267 259 252 246 242 241 241 246 245 248 244 239 237 237 240 243 263 288 298 310 319 329 333 335 337 336
301 296 308 301 304 302 302 303 305 309 311 310 308 307 296 295 301 300 299 300 294 285 270 265 257 250 248 241 238 240 240 242 242 243 239 238 234 233 243 264 281 296 305 320 329 332 333 335 335
302 318 309 310 309 308 311 310 309 319 322 323 320 319 316 303 307 309 302 296 295 290 276 262 254 249 244 236 238 234 236 237 237 236 238 232 229 225 245 262 277 292 311 323 329 331 333 333 332
300 305 314 317 318 320 320 320 323 324 328 324 321 324 326 322 314 311 302 294 291 289 285 262 253 248 240 232 228 227 231 233 236 232 229 225 220 234 239 258 272 293 312 323 327 330 332 331 331
297 315 306 324 327 317 317 277 318 324 328 326 321 318 318 315 310 310 302 295 290 288 280 260 252 246 231 223 221 223 225 228 227 226 223 221 217 228 240 265 287 305 318 325 328 328 330 330 329